• MPC Preparation (Info)

  • MPEC 2016-O197: 2014 FC72

    The following Minor Planet Electronic Circular may be linked-to from your own Web pages, but must not otherwise be redistributed electronically.

    A form allowing access to any MPEC is at the bottom of this page.


    Read MPEC 2016-O196 Read MPEC 2016-O198


    M.P.E.C. 2016-O197                               Issued 2016 July 17, 16:04 UT
    
         The Minor Planet Electronic Circulars contain information on unusual
             minor planets and routine data on comets.  They are published
        on behalf of Division F of the International Astronomical Union by the
              Minor Planet Center, Smithsonian Astrophysical Observatory,
                              Cambridge, MA 02138, U.S.A.
    
                 Prepared using the Tamkin Foundation Computer Network
    
                                  MPC@CFA.HARVARD.EDU
                URL https://www.minorplanetcenter.net/    ISSN 1523-6714
    
                                       2014 FC72
    
    Observations:
         K14F72C  C2013 03 19.49721 13 16 29.143+03 03 52.82         22.0 wLEO197F51
         K14F72C  C2013 03 19.51262 13 16 29.104+03 03 53.15         21.9 wLEO197F51
         K14F72C  C2013 03 19.52806 13 16 29.051+03 03 53.66         21.8 wLEO197F51
         K14F72C  C2013 03 19.54348 13 16 28.998+03 03 54.00         21.9 wLEO197F51
         K14F72C* C2014 03 24.45020 13 20 42.024+03 12 53.92         21.8 wLEO197F51
         K14F72C  C2014 03 24.46368 13 20 41.975+03 12 54.30         21.6 wLEO197F51
         K14F72C  C2014 03 24.47719 13 20 41.921+03 12 54.64         21.8 wLEO197F51
         K14F72C  C2014 03 24.49078 13 20 41.873+03 12 55.12         21.8 wLEO197F51
         K14F72C  C2014 05 24.31441 13 17 22.414+03 35 29.46         21.7 wLEO197F51
         K14F72C  C2014 05 24.32670 13 17 22.390+03 35 29.65         21.8 wLEO197F51
         K14F72C  C2014 05 24.33898 13 17 22.357+03 35 29.86         21.8 wLEO197F51
         K14F72C  C2014 05 24.35125 13 17 22.323+03 35 29.88         21.7 wLEO197F51
         K14F72C  C2014 06 17.28923 13 16 39.588+03 37 30.02         22.0 wLEO197F51
         K14F72C  C2014 06 17.30081 13 16 39.581+03 37 30.23         21.8 wLEO197F51
         K14F72C  C2014 06 17.31236 13 16 39.563+03 37 30.25         21.8 wLEO197F51
         K14F72C  C2014 06 17.32391 13 16 39.562+03 37 30.17         21.9 wLEO197F51
         K14F72C  C2014 07 01.27049 13 16 31.298+03 36 33.47         21.9 wLEO197F51
         K14F72C  C2014 07 01.28195 13 16 31.297+03 36 33.31         21.9 wLEO197F51
         K14F72C  C2014 07 01.29340 13 16 31.292+03 36 33.35         21.9 wLEO197F51
         K14F72C  C2014 07 01.30484 13 16 31.286+03 36 33.09         21.7 wLEO197F51
         K14F72C  C2015 03 25.43475 13 25 08.822+03 19 50.79         21.5 wLEO197F51
         K14F72C  C2015 03 25.44957 13 25 08.766+03 19 51.22         21.5 wLEO197F51
         K14F72C  C2015 03 25.46446 13 25 08.721+03 19 51.71         21.5 wLEO197F51
         K14F72C  C2015 03 25.47947 13 25 08.668+03 19 52.12         21.5 wLEO197F51
         K14F72C  C2015 03 27.46696 13 25 01.965+03 20 51.23         21.4 wLEO197F51
         K14F72C  C2015 03 27.48206 13 25 01.922+03 20 51.86         21.5 wLEO197F51
         K14F72C  C2015 03 27.50016 13 25 01.851+03 20 52.31         21.7 wLEO197F51
         K14F72C  C2015 03 27.51527 13 25 01.803+03 20 52.96         21.8 wLEO197F51
         K14F72C  C2015 04 15.43396 13 23 55.209+03 29 44.15         22.1 wLEO197F51
         K14F72C  C2015 04 15.44907 13 23 55.145+03 29 44.28         21.7 wLEO197F51
         K14F72C  C2015 04 15.47854 13 23 55.043+03 29 45.10         21.7 wLEO197F51
         K14F72C  C2015 04 15.49368 13 23 54.996+03 29 45.52         21.9 wLEO197F51
    
    Observer details:
    F51 Pan-STARRS 1, Haleakala.  Observers B. Gibson, T. Goggia, N. Primak,
        A. Schultz, M. Willman.  Measurers K. Chambers, S. Chastel, Y.-T. Chen,
        L. Denneau, H. Flewelling, M. Holman, M. Huber, R. Jedicke, M. Lackner,
        E. Lilly, H.-W. Lin, E. Magnier, M. Micheli, M. Payne, P. Veres,
        R. Wainscoat, C. Waters, R. Weryk.  1.8-m Ritchey-Chretien + CCD.
    
    Orbital elements:
    2014 FC72
    Epoch 2016 July 31.0 TT = JDT 2457600.5                 MPC
    M 355.79281              (2000.0)            P               Q
    n   0.00147651     Peri.   33.14401     -0.85381323     +0.52027279
    a  76.3796456      Node   177.93988     -0.51548178     -0.84974539
    e   0.3237202      Incl.   29.80070     +0.07267391     +0.08514099
    P 668              H    4.4           G   0.15           U   4
    Residuals in seconds of arc
    130319 F51  0.1-  0.1+    140524 F51  0.1-  0.0     150325 F51  0.0   0.0
    130319 F51  0.1+  0.0     140617 F51  0.1-  0.2-    150325 F51  0.0   0.0
    130319 F51  0.0   0.0     140617 F51  0.0   0.0     150327 F51  0.1-  0.2-
    130319 F51  0.0   0.1-    140617 F51  0.0   0.1+    150327 F51  0.0   0.0
    140324 F51  0.1+  0.1+    140617 F51  0.1+  0.0     150327 F51  0.1-  0.1-
    140324 F51  0.1+  0.0     140701 F51  0.0   0.0     150327 F51  0.0   0.1+
    140324 F51  0.0   0.0     140701 F51  0.0   0.0     150415 F51  0.1+  0.2+
    140324 F51  0.1-  0.0     140701 F51  0.0   0.1+    150415 F51  0.0   0.0
    140524 F51  0.1-  0.0     140701 F51  0.1-  0.1-    150415 F51  0.1+  0.0
    140524 F51  0.0   0.0     150325 F51  0.0   0.0     150415 F51  0.2+  0.0
    140524 F51  0.0   0.1+    150325 F51  0.1-  0.0
    
    Ephemeris:
    2014 FC72                a,e,i = 76.38, 0.32, 30                 q = 51.654
    Date    TT    R. A. (2000) Decl.     Delta      r     Elong.  Phase     V
    2016 06 17    13 25 32.5 +03 50 38  51.4184 51.8039   111.8     1.0    21.7
    ...
    2016 07 02    13 25 21.9 +03 49 29  51.6551 51.8023    97.8     1.1    21.7
    ...
    2016 07 10    13 25 22.5 +03 48 09  51.7860 51.8015    90.3     1.1    21.7
    ...
    2016 07 16    13 25 25.9 +03 46 52  51.8843 51.8009    84.7     1.1    21.7
    2016 07 17    13 25 26.8 +03 46 38  51.9006 51.8008    83.8     1.1    21.7
    2016 07 18    13 25 27.7 +03 46 23  51.9169 51.8007    82.9     1.1    21.7
    ...
    2016 07 24    13 25 34.4 +03 44 47  52.0137 51.8001    77.3     1.1    21.7
    ...
    2016 08 01    13 25 47.3 +03 42 18  52.1392 51.7993    69.9     1.1    21.7
    ...
    2016 08 16    13 26 22.8 +03 36 48  52.3560 51.7978    56.1     0.9    21.7
    
    A. U. Tomatic                (C) Copyright 2016 MPC           M.P.E.C. 2016-O197
    

    Read MPEC 2016-O196 Read MPEC 2016-O198


    MPEC number:

    Enter an MPEC number in one of the following forms:

    • 1997-B01 (the full form)
    • J97B01 (the packed version of the full form)
    • B01 (the abbreviated form)